Regional Weather Roundup
Issued by NWS State College, PA

Home | Current Version | Previous Version | Graphics & Text | Print | Product List | Glossary Off
Versions: 1 2 3 4 5 6 7 8 9 10 11 12 13 14 15 16 17 18 19 20 21 22 23 24 25 26 27 28 29 30 31 32 33 34 35 36 37 38 39 40 41 42 43 44 45 46 47 48 49 50

000
ASUS41 KCTP 091103
RWRCTP

REGIONAL WEATHER ROUNDUP
NATIONAL WEATHER SERVICE STATE COLLEGE PA
600 AM EST FRI DEC 09 2016

Note: "fair" indicates few or no clouds below 12,000 feet with no
significant weather and/or obstructions to visibility.

* = STATION THAT DOES NOT REPORT PRECIPITATION /E.G. RAIN...SNOW...ETC/
    THUNDER OR FOG.

PAZ002>004-007>009-013>016-020>023-029>032-091200-
WESTERN PENNSYLVANIA

CITY           SKY/WX    TMP DP  RH WIND       PRES   REMARKS
ERIE           CLOUDY    32  20  61 NW20G30   30.20R
MEADVILLE      LGT SNOW  22  18  85 W14       30.20R FOG     WCI   9
FRANKLIN*        N/A     21  16  79 W14       30.21R WCI   8
NEW CASTLE     FLURRIES  23  18  81 W12       30.28R WCI  12
BEAVER COUNTY  NOT AVBL
BUTLER*        CLOUDY    21  16  79 W10       30.28R WCI  10
PITTSBURGH INT FLURRIES  23  17  78 W16G23    30.28R WCI  10
PITTSBURGH     PTCLDY    21  14  74 W18G29    30.27R WCI   6
INDIANA*       CLOUDY    23  19  86 W13G20    30.26R WCI  11
LATROBE        CLOUDY    23  16  74 SW14      30.29R WCI  11
WASHINGTON CO* CLOUDY    21  14  73 SW13      30.31R WCI   9
$$

PAZ004>006-010>012-017>019-024>028-033>037-041-042-045-046-049>053-091200-
CENTRAL PENNSYLVANIA

CITY           SKY/WX    TMP DP  RH WIND       PRES   REMARKS
BRADFORD       LGT SNOW  21  18  88 W9G20     30.07R FOG     WCI  11
DUBOIS         CLOUDY    21  16  81 W15       30.14R HAZE    WCI   8
CLEARFIELD     CLOUDY    24  18  77 W15G24    30.16R WCI  11
JOHNSTOWN      LGT SNOW  18  15  88 W15       30.14R FOG     WCI   4
ALTOONA        CLOUDY    24  16  71 W13G21    30.19R WCI  12
STATE COLLEGE  CLOUDY    25  18  74 W15G24    30.16R WCI  12
WILLIAMSPORT   MOCLDY    29  18  63 W14       30.13R
SELINSGROVE    CLOUDY    29  19  66 W8G17     30.17R
FT INDIANTOWN  CLOUDY    29  16  58 SW12      30.17R
CAPITAL CITY   PTCLDY    29  15  56 W8        30.20R
HARRISBURG     PTCLDY    31  19  61 W14       30.20R
YORK           CLEAR     26  15  63 W8        30.21R
$$

PAZ038>040-043-044-047-048-054-055-060>062-067>071-091200-
EASTERN PENNSYLVANIA

CITY           SKY/WX    TMP DP  RH WIND       PRES   REMARKS
SCRANTON       FLURRIES  28  19  69 SW10      30.06R
MOUNT POCONO   FLURRIES  22  16  78 W17G24    29.98R WCI   8
ALLENTOWN      MOCLDY    30  16  56 W15G24    30.10S
QUAKERTOWN*    SUNNY     28  18  64 W10G18    30.11R
READING        PTCLDY    29  16  58 W10       30.15R
LANCASTER      CLEAR     27  18  69 W12       30.19R
COATESVILLE    SUNNY     27  16  63 NW17G23   30.15R WCI  14
POTTSTOWN      CLEAR     28  16  60 W12G21    30.14R
BLUE BELL      CLEAR     30  18  59 W12G21    30.12R
DOYLESTOWN     CLEAR     30  17  58 W15G22    30.10R
WILLOW GROVE   NOT AVBL
NORTH PHILA    CLEAR     31  16  54 W12G20    30.15R
PHILADELPHIA   CLEAR     30  16  56 W10       30.18R
$$



USA.gov is the U.S. government's official web portal to all federal, state and local government web resources and services.